| time (UTC) | temp C | wind direction | speed KPH | gust KPH | rain 1hr cm | rain 24hr cm | rain mn cm | humidity % | barometer mb |
| 20260509203534 | 7 | 0 | 1.6 | 4.8 | 0.00 | 0.00 | 0.00 | 71 | 1018.8 |
| 20260509203043 | 7 | 141 | 1.6 | 8.0 | 0.00 | 0.00 | 0.00 | 71 | 1018.7 |
| 20260509202533 | 7 | 101 | 1.6 | 8.0 | 0.00 | 0.00 | 0.00 | 71 | 1018.8 |
| 20260509202034 | 7 | 126 | 1.6 | 6.4 | 0.00 | 0.00 | 0.00 | 71 | 1018.9 |
| 20260509201547 | 7 | 82 | 3.2 | 6.4 | 0.00 | 0.00 | 0.00 | 71 | 1018.7 |
| 20260509201035 | 7 | 149 | 3.2 | 6.4 | 0.00 | 0.00 | 0.00 | 69 | 1018.8 |
| 20260509200532 | 7 | 135 | 3.2 | 4.8 | 0.00 | 0.00 | 0.00 | 68 | 1018.8 |
| 20260509200045 | 7 | 120 | 1.6 | 4.8 | 0.00 | 0.00 | 0.00 | 67 | 1018.8 |
| 20260509195532 | 7 | 156 | 1.6 | 6.4 | 0.00 | 0.00 | 0.00 | 66 | 1018.9 |
| 20260509195032 | 7 | 177 | 1.6 | 8.0 | 0.00 | 0.00 | 0.00 | 66 | 1018.9 |
| 20260509194545 | 8 | 174 | 3.2 | 9.7 | 0.00 | 0.00 | 0.00 | 67 | 1018.9 |
| 20260509194033 | 8 | 183 | 4.8 | 9.7 | 0.00 | 0.00 | 0.00 | 65 | 1018.8 |
| 20260509193532 | 8 | 192 | 4.8 | 9.7 | 0.00 | 0.00 | 0.00 | 63 | 1018.8 |
| 20260509193044 | 8 | 195 | 4.8 | 8.0 | 0.00 | 0.00 | 0.00 | 63 | 1018.9 |
| 20260509192533 | 8 | 165 | 3.2 | 8.0 | 0.00 | 0.00 | 0.00 | 63 | 1018.9 |
| 20260509192033 | 8 | 219 | 3.2 | 6.4 | 0.00 | 0.00 | 0.00 | 62 | 1019.1 |
| 20260509191539 | 8 | 162 | 1.6 | 6.4 | 0.00 | 0.00 | 0.00 | 61 | 1019.0 |
| 20260509191035 | 9 | 0 | 1.6 | 4.8 | 0.00 | 0.00 | 0.00 | 60 | 1019.0 |
| 20260509190532 | 9 | 120 | 1.6 | 6.4 | 0.00 | 0.00 | 0.00 | 58 | 1019.0 |
| 20260509190043 | 9 | 174 | 3.2 | 6.4 | 0.00 | 0.00 | 0.00 | 57 | 1019.1 |
| 20260509185533 | 9 | 165 | 3.2 | 6.4 | 0.00 | 0.00 | 0.00 | 56 | 1019.1 |
| 20260509185033 | 9 | 166 | 1.6 | 4.8 | 0.00 | 0.00 | 0.00 | 55 | 1019.1 |
| 20260509184545 | 10 | 150 | 0.0 | 4.8 | 0.00 | 0.00 | 0.00 | 54 | 1019.2 |
| 20260509184032 | 10 | 193 | 1.6 | 3.2 | 0.00 | 0.00 | 0.00 | 54 | 1019.2 |
| 20260509183533 | 10 | 162 | 0.0 | 6.4 | 0.00 | 0.00 | 0.00 | 53 | 1019.3 |
| 20260509183047 | 10 | 0 | 0.0 | 9.7 | 0.00 | 0.00 | 0.00 | 53 | 1019.3 |
| 20260509182534 | 10 | 224 | 4.8 | 11.3 | 0.00 | 0.00 | 0.00 | 52 | 1019.3 |
| 20260509182034 | 10 | 191 | 8.0 | 17.7 | 0.00 | 0.00 | 0.00 | 52 | 1019.3 |
| 20260509181547 | 10 | 139 | 9.7 | 17.7 | 0.00 | 0.00 | 0.00 | 51 | 1019.2 |
| 20260509181035 | 10 | 175 | 3.2 | 12.9 | 0.00 | 0.00 | 0.00 | 51 | 1019.3 |
| 20260509180535 | 10 | 150 | 4.8 | 19.3 | 0.00 | 0.00 | 0.00 | 49 | 1019.3 |
| 20260509180050 | 10 | 206 | 12.9 | 19.3 | 0.00 | 0.00 | 0.00 | 48 | 1019.3 |
| 20260509175534 | 11 | 233 | 12.9 | 17.7 | 0.00 | 0.00 | 0.00 | 47 | 1019.2 |
| 20260509175034 | 11 | 201 | 8.0 | 16.1 | 0.00 | 0.00 | 0.00 | 46 | 1019.2 |
| 20260509174539 | 11 | 221 | 4.8 | 19.3 | 0.00 | 0.00 | 0.00 | 46 | 1019.2 |
| 20260509174034 | 11 | 217 | 11.3 | 22.5 | 0.00 | 0.00 | 0.00 | 45 | 1019.3 |
| 20260509173535 | 11 | 218 | 14.5 | 27.4 | 0.00 | 0.00 | 0.00 | 44 | 1019.3 |
| 20260509173048 | 11 | 227 | 16.1 | 27.4 | 0.00 | 0.00 | 0.00 | 42 | 1019.3 |
| 20260509172536 | 11 | 169 | 16.1 | 27.4 | 0.00 | 0.00 | 0.00 | 42 | 1019.4 |
| 20260509172035 | 11 | 225 | 16.1 | 30.6 | 0.00 | 0.00 | 0.00 | 42 | 1019.5 |
| 20260509171551 | 11 | 224 | 17.7 | 30.6 | 0.00 | 0.00 | 0.00 | 41 | 1019.5 |
| 20260509171034 | 12 | 141 | 20.9 | 29.0 | 0.00 | 0.00 | 0.00 | 41 | 1019.6 |
| 20260509170534 | 12 | 214 | 19.3 | 29.0 | 0.00 | 0.00 | 0.00 | 41 | 1019.7 |
| 20260509170047 | 12 | 204 | 16.1 | 29.0 | 0.00 | 0.00 | 0.00 | 41 | 1019.7 |
| 20260509165534 | 12 | 127 | 17.7 | 33.8 | 0.00 | 0.00 | 0.00 | 41 | 1019.6 |
| 20260509165038 | 12 | 217 | 16.1 | 33.8 | 0.00 | 0.00 | 0.00 | 39 | 1019.6 |
| 20260509164550 | 12 | 248 | 17.7 | 33.8 | 0.00 | 0.00 | 0.00 | 39 | 1019.7 |
| 20260509164035 | 12 | 220 | 20.9 | 33.8 | 0.00 | 0.00 | 0.00 | 39 | 1019.7 |
| 20260509163537 | 12 | 202 | 17.7 | 40.2 | 0.00 | 0.00 | 0.00 | 39 | 1019.7 |
| 20260509163042 | 12 | 177 | 19.3 | 40.2 | 0.00 | 0.00 | 0.00 | 39 | 1019.9 |
| 20260509162534 | 12 | 200 | 27.4 | 40.2 | 0.00 | 0.00 | 0.00 | 37 | 1020.0 |
| 20260509162035 | 12 | 199 | 16.1 | 38.6 | 0.00 | 0.00 | 0.00 | 38 | 1019.9 |
| 20260509161541 | 13 | 205 | 25.7 | 40.2 | 0.00 | 0.00 | 0.00 | 37 | 1020.2 |
| 20260509161034 | 13 | 236 | 17.7 | 40.2 | 0.00 | 0.00 | 0.00 | 37 | 1020.2 |
| 20260509160535 | 13 | 231 | 22.5 | 37.0 | 0.00 | 0.00 | 0.00 | 38 | 1020.2 |
| 20260509160051 | 13 | 236 | 24.1 | 37.0 | 0.00 | 0.00 | 0.00 | 38 | 1020.2 |
| 20260509155535 | 13 | 228 | 24.1 | 37.0 | 0.00 | 0.00 | 0.00 | 37 | 1020.3 |
| 20260509155034 | 13 | 206 | 20.9 | 33.8 | 0.00 | 0.00 | 0.00 | 36 | 1020.3 |
| 20260509154539 | 13 | 224 | 22.5 | 32.2 | 0.00 | 0.00 | 0.00 | 36 | 1020.4 |
| 20260509154034 | 13 | 205 | 19.3 | 33.8 | 0.00 | 0.00 | 0.00 | 34 | 1020.3 |
| 20260509153537 | 13 | 240 | 25.7 | 33.8 | 0.00 | 0.00 | 0.00 | 35 | 1020.4 |
| 20260509153053 | 13 | 263 | 22.5 | 32.2 | 0.00 | 0.00 | 0.00 | 34 | 1020.4 |
| 20260509152532 | 14 | 215 | 17.7 | 33.8 | 0.00 | 0.00 | 0.00 | 35 | 1020.4 |
| 20260509152034 | 13 | 219 | 22.5 | 41.8 | 0.00 | 0.00 | 0.00 | 35 | 1020.5 |
| 20260509151545 | 13 | 216 | 25.7 | 41.8 | 0.00 | 0.00 | 0.00 | 34 | 1020.5 |
| 20260509151033 | 13 | 212 | 20.9 | 35.4 | 0.00 | 0.00 | 0.00 | 35 | 1020.6 |
| 20260509150533 | 13 | 219 | 19.3 | 35.4 | 0.00 | 0.00 | 0.00 | 33 | 1020.7 |
| 20260509150049 | 13 | 212 | 22.5 | 35.4 | 0.00 | 0.00 | 0.00 | 32 | 1020.7 |
| 20260509145534 | 13 | 214 | 19.3 | 33.8 | 0.00 | 0.00 | 0.00 | 33 | 1020.7 |
| 20260509145032 | 14 | 231 | 19.3 | 33.8 | 0.00 | 0.00 | 0.00 | 32 | 1020.9 |
| 20260509144540 | 13 | 214 | 19.3 | 32.2 | 0.00 | 0.00 | 0.00 | 32 | 1020.9 |
| 20260509144033 | 13 | 184 | 17.7 | 30.6 | 0.00 | 0.00 | 0.00 | 35 | 1020.9 |
| 20260509143534 | 13 | 187 | 14.5 | 32.2 | 0.00 | 0.00 | 0.00 | 36 | 1020.8 |
| 20260509143040 | 13 | 175 | 17.7 | 37.0 | 0.00 | 0.00 | 0.00 | 34 | 1020.9 |
| 20260509142535 | 13 | 207 | 17.7 | 37.0 | 0.00 | 0.00 | 0.00 | 34 | 1021.0 |
| 20260509142033 | 14 | 198 | 17.7 | 32.2 | 0.00 | 0.00 | 0.00 | 36 | 1021.0 |
| 20260509141547 | 14 | 219 | 12.9 | 32.2 | 0.00 | 0.00 | 0.00 | 35 | 1020.9 |
| 20260509141037 | 14 | 219 | 19.3 | 32.2 | 0.00 | 0.00 | 0.00 | 35 | 1020.9 |
| 20260509140533 | 14 | 225 | 16.1 | 29.0 | 0.00 | 0.00 | 0.00 | 35 | 1021.0 |
| 20260509140053 | 14 | 213 | 17.7 | 29.0 | 0.00 | 0.00 | 0.00 | 33 | 1021.0 |
| 20260509135534 | 14 | 99 | 14.5 | 37.0 | 0.00 | 0.00 | 0.00 | 34 | 1021.1 |
| 20260509135036 | 14 | 208 | 20.9 | 37.0 | 0.00 | 0.00 | 0.00 | 33 | 1021.1 |
| 20260509134611 | 15 | 230 | 17.7 | 32.2 | 0.00 | 0.00 | 0.00 | 34 | 1021.2 |
| 20260509134033 | 15 | 214 | 22.5 | 32.2 | 0.00 | 0.00 | 0.00 | 32 | 1021.2 |
| 20260509133532 | 15 | 158 | 17.7 | 30.6 | 0.00 | 0.00 | 0.00 | 32 | 1021.2 |
| 20260509133045 | 15 | 167 | 19.3 | 33.8 | 0.00 | 0.00 | 0.00 | 32 | 1021.1 |
| 20260509132533 | 15 | 204 | 16.1 | 38.6 | 0.00 | 0.00 | 0.00 | 32 | 1021.3 |
| 20260509132036 | 15 | 146 | 22.5 | 40.2 | 0.00 | 0.00 | 0.00 | 30 | 1021.6 |
| 20260509131549 | 15 | 207 | 17.7 | 40.2 | 0.00 | 0.00 | 0.00 | 30 | 1021.6 |
| 20260509131035 | 16 | 217 | 22.5 | 35.4 | 0.00 | 0.00 | 0.00 | 28 | 1021.5 |
| 20260509130534 | 16 | 219 | 25.7 | 37.0 | 0.00 | 0.00 | 0.00 | 28 | 1021.6 |
| 20260509130041 | 16 | 224 | 25.7 | 38.6 | 0.00 | 0.00 | 0.00 | 27 | 1021.6 |
| 20260509125532 | 16 | 216 | 27.4 | 38.6 | 0.00 | 0.00 | 0.00 | 27 | 1021.7 |
| 20260509125036 | 15 | 215 | 24.1 | 41.8 | 0.00 | 0.00 | 0.00 | 27 | 1021.8 |
| 20260509124539 | 15 | 221 | 27.4 | 41.8 | 0.00 | 0.00 | 0.00 | 27 | 1021.8 |
| 20260509124033 | 15 | 250 | 25.7 | 41.8 | 0.00 | 0.00 | 0.00 | 27 | 1021.9 |
| 20260509123533 | 15 | 198 | 22.5 | 33.8 | 0.00 | 0.00 | 0.00 | 26 | 1021.9 |
| 20260509123038 | 15 | 234 | 22.5 | 33.8 | 0.00 | 0.00 | 0.00 | 28 | 1021.9 |
| 20260509122532 | 15 | 229 | 24.1 | 33.8 | 0.00 | 0.00 | 0.00 | 27 | 1021.9 |
| 20260509122034 | 15 | 226 | 22.5 | 32.2 | 0.00 | 0.00 | 0.00 | 28 | 1022.0 |
| 20260509121551 | 15 | 207 | 17.7 | 32.2 | 0.00 | 0.00 | 0.00 | 30 | 1022.0 |
| 20260509121032 | 15 | 224 | 14.5 | 29.0 | 0.00 | 0.00 | 0.00 | 31 | 1022.1 |
| 20260509120532 | 15 | 235 | 19.3 | 33.8 | 0.00 | 0.00 | 0.00 | 32 | 1022.0 |
| 20260509120043 | 15 | 217 | 16.1 | 33.8 | 0.00 | 0.00 | 0.00 | 34 | 1022.0 |
| 20260509115532 | 15 | 216 | 19.3 | 33.8 | 0.00 | 0.00 | 0.00 | 32 | 1022.0 |
| 20260509115034 | 15 | 161 | 16.1 | 33.8 | 0.00 | 0.00 | 0.00 | 33 | 1022.1 |
| 20260509114547 | 15 | 113 | 19.3 | 33.8 | 0.00 | 0.00 | 0.00 | 34 | 1022.0 |
| 20260509114033 | 15 | 153 | 14.5 | 29.0 | 0.00 | 0.00 | 0.00 | 34 | 1022.2 |
| 20260509113534 | 15 | 199 | 17.7 | 29.0 | 0.00 | 0.00 | 0.00 | 34 | 1022.2 |
| 20260509113042 | 15 | 236 | 12.9 | 32.2 | 0.00 | 0.00 | 0.00 | 38 | 1022.2 |
| 20260509112532 | 15 | 205 | 20.9 | 32.2 | 0.00 | 0.00 | 0.00 | 36 | 1022.3 |
| 20260509112032 | 15 | 225 | 24.1 | 32.2 | 0.00 | 0.00 | 0.00 | 36 | 1022.3 |
| 20260509111541 | 15 | 219 | 17.7 | 32.2 | 0.00 | 0.00 | 0.00 | 35 | 1022.4 |
| 20260509111032 | 15 | 233 | 22.5 | 32.2 | 0.00 | 0.00 | 0.00 | 36 | 1022.3 |
| 20260509110536 | 14 | 220 | 17.7 | 38.6 | 0.00 | 0.00 | 0.00 | 35 | 1022.4 |
| 20260509110047 | 14 | 229 | 22.5 | 38.6 | 0.00 | 0.00 | 0.00 | 35 | 1022.5 |
| 20260509105532 | 14 | 207 | 14.5 | 35.4 | 0.00 | 0.00 | 0.00 | 37 | 1022.3 |
| 20260509105032 | 14 | 203 | 19.3 | 29.0 | 0.00 | 0.00 | 0.00 | 40 | 1022.5 |
| 20260509104549 | 14 | 207 | 16.1 | 27.4 | 0.00 | 0.00 | 0.00 | 43 | 1022.6 |
| 20260509104032 | 14 | 227 | 19.3 | 27.4 | 0.00 | 0.00 | 0.00 | 49 | 1022.5 |
| 20260509103533 | 14 | 217 | 16.1 | 24.1 | 0.00 | 0.00 | 0.00 | 45 | 1022.4 |
| 20260509103058 | 15 | 235 | 11.3 | 27.4 | 0.00 | 0.00 | 0.00 | 49 | 1022.5 |
| 20260509102534 | 15 | 93 | 14.5 | 27.4 | 0.00 | 0.00 | 0.00 | 48 | 1022.4 |
| 20260509102033 | 15 | 179 | 11.3 | 33.8 | 0.00 | 0.00 | 0.00 | 49 | 1022.3 |
| 20260509101548 | 16 | 193 | 17.7 | 33.8 | 0.00 | 0.00 | 0.00 | 45 | 1022.5 |
| 20260509101032 | 16 | 200 | 19.3 | 33.8 | 0.00 | 0.00 | 0.00 | 47 | 1022.4 |
| 20260509100532 | 15 | 226 | 14.5 | 33.8 | 0.00 | 0.00 | 0.00 | 49 | 1022.4 |
| 20260509100046 | 15 | 171 | 14.5 | 29.0 | 0.00 | 0.00 | 0.00 | 49 | 1022.5 |
| 20260509095533 | 15 | 214 | 17.7 | 29.0 | 0.00 | 0.00 | 0.00 | 50 | 1022.6 |
| 20260509095033 | 15 | 210 | 14.5 | 22.5 | 0.00 | 0.00 | 0.00 | 52 | 1022.7 |
| 20260509094550 | 15 | 236 | 12.9 | 22.5 | 0.00 | 0.00 | 0.00 | 51 | 1022.6 |
| 20260509094032 | 15 | 203 | 6.4 | 22.5 | 0.00 | 0.00 | 0.00 | 57 | 1022.6 |
| 20260509093532 | 15 | 217 | 12.9 | 22.5 | 0.00 | 0.00 | 0.00 | 54 | 1022.7 |
| 20260509093045 | 15 | 214 | 11.3 | 24.1 | 0.00 | 0.00 | 0.00 | 51 | 1022.8 |
| 20260509092532 | 15 | 236 | 16.1 | 24.1 | 0.00 | 0.00 | 0.00 | 53 | 1022.9 |
| 20260509092034 | 14 | 237 | 14.5 | 27.4 | 0.00 | 0.00 | 0.00 | 52 | 1023.0 |
| 20260509091542 | 15 | 210 | 14.5 | 27.4 | 0.00 | 0.00 | 0.00 | 56 | 1022.9 |
| 20260509091038 | 14 | 95 | 8.0 | 19.3 | 0.00 | 0.00 | 0.00 | 57 | 1022.9 |
| 20260509090534 | 14 | 217 | 12.9 | 19.3 | 0.00 | 0.00 | 0.00 | 58 | 1023.0 |
| 20260509090041 | 14 | 162 | 11.3 | 17.7 | 0.00 | 0.00 | 0.00 | 57 | 1023.1 |
| 20260509085534 | 14 | 246 | 8.0 | 17.7 | 0.00 | 0.00 | 0.00 | 62 | 1023.1 |
| 20260509085034 | 14 | 185 | 3.2 | 11.3 | 0.00 | 0.00 | 0.00 | 62 | 1023.1 |
| 20260509084550 | 14 | 100 | 3.2 | 12.9 | 0.00 | 0.00 | 0.00 | 62 | 1023.1 |
| 20260509084034 | 13 | 212 | 4.8 | 17.7 | 0.00 | 0.00 | 0.00 | 66 | 1023.1 |
| 20260509083534 | 13 | 180 | 8.0 | 17.7 | 0.00 | 0.00 | 0.00 | 63 | 1023.3 |
| 20260509083049 | 13 | 235 | 6.4 | 17.7 | 0.00 | 0.00 | 0.00 | 68 | 1023.3 |
| 20260509082534 | 13 | 102 | 9.7 | 19.3 | 0.00 | 0.00 | 0.00 | 69 | 1023.4 |
| 20260509082034 | 13 | 221 | 11.3 | 19.3 | 0.00 | 0.00 | 0.00 | 68 | 1023.4 |
| 20260509081550 | 13 | 233 | 11.3 | 17.7 | 0.00 | 0.00 | 0.00 | 69 | 1023.3 |
| 20260509081035 | 12 | 167 | 9.7 | 17.7 | 0.00 | 0.00 | 0.00 | 69 | 1023.3 |
| 20260509080536 | 12 | 223 | 8.0 | 17.7 | 0.00 | 0.00 | 0.00 | 70 | 1023.3 |
| 20260509080044 | 12 | 160 | 9.7 | 17.7 | 0.00 | 0.00 | 0.00 | 69 | 1023.3 |
| 20260509075538 | 12 | 208 | 8.0 | 17.7 | 0.00 | 0.00 | 0.00 | 69 | 1023.3 |
| 20260509075034 | 12 | 205 | 8.0 | 17.7 | 0.00 | 0.00 | 0.00 | 71 | 1023.3 |
| 20260509074552 | 12 | 169 | 9.7 | 16.1 | 0.00 | 0.00 | 0.00 | 70 | 1023.3 |
| 20260509074034 | 12 | 195 | 8.0 | 16.1 | 0.00 | 0.00 | 0.00 | 70 | 1023.5 |
| 20260509073536 | 12 | 172 | 8.0 | 16.1 | 0.00 | 0.00 | 0.00 | 71 | 1023.5 |
| 20260509073047 | 12 | 210 | 8.0 | 12.9 | 0.00 | 0.00 | 0.00 | 72 | 1023.5 |
| 20260509072534 | 12 | 179 | 6.4 | 11.3 | 0.00 | 0.00 | 0.00 | 74 | 1023.5 |
| 20260509072034 | 11 | 215 | 3.2 | 8.0 | 0.00 | 0.00 | 0.00 | 74 | 1023.6 |
| 20260509071538 | 11 | 163 | 3.2 | 8.0 | 0.00 | 0.00 | 0.00 | 75 | 1023.5 |
| 20260509071034 | 11 | 161 | 3.2 | 8.0 | 0.00 | 0.00 | 0.00 | 76 | 1023.6 |
| 20260509070534 | 11 | 103 | 1.6 | 8.0 | 0.00 | 0.00 | 0.00 | 76 | 1023.6 |
| 20260509070039 | 11 | 141 | 1.6 | 9.7 | 0.00 | 0.00 | 0.00 | 78 | 1023.7 |
| 20260509065534 | 10 | 265 | 4.8 | 9.7 | 0.00 | 0.00 | 0.00 | 78 | 1023.7 |
| 20260509065034 | 10 | 200 | 1.6 | 8.0 | 0.00 | 0.00 | 0.00 | 78 | 1023.7 |
| 20260509064557 | 10 | 179 | 1.6 | 6.4 | 0.00 | 0.00 | 0.00 | 79 | 1023.8 |
| 20260509064035 | 10 | 120 | 3.2 | 6.4 | 0.00 | 0.00 | 0.00 | 79 | 1023.7 |
| 20260509063534 | 10 | 124 | 1.6 | 6.4 | 0.00 | 0.00 | 0.00 | 80 | 1023.8 |
| 20260509063046 | 9 | 190 | 1.6 | 4.8 | 0.00 | 0.00 | 0.00 | 80 | 1023.8 |
| 20260509062537 | 9 | 129 | 0.0 | 3.2 | 0.00 | 0.00 | 0.00 | 81 | 1023.9 |
| 20260509062038 | 8 | 0 | 0.0 | 3.2 | 0.00 | 0.00 | 0.00 | 81 | 1023.8 |
| 20260509061545 | 8 | 176 | 0.0 | 3.2 | 0.00 | 0.00 | 0.00 | 81 | 1023.8 |
| 20260509061035 | 8 | 155 | 1.6 | 4.8 | 0.00 | 0.00 | 0.00 | 81 | 1023.8 |
| 20260509060535 | 8 | 0 | 0.0 | 4.8 | 0.00 | 0.00 | 0.00 | 81 | 1023.9 |
| 20260509060042 | 8 | 0 | 1.6 | 4.8 | 0.00 | 0.00 | 0.00 | 81 | 1023.9 |
| 20260509055534 | 7 | 0 | 0.0 | 0.0 | 0.00 | 0.00 | 0.00 | 82 | 1023.9 |
| 20260509055033 | 7 | 0 | 0.0 | 0.0 | 0.00 | 0.00 | 0.00 | 82 | 1023.9 |
| 20260509054548 | 7 | 0 | 0.0 | 0.0 | 0.00 | 0.00 | 0.00 | 81 | 1024.0 |
| 20260509054033 | 6 | 0 | 0.0 | 0.0 | 0.00 | 0.00 | 0.00 | 82 | 1024.0 |
| 20260509053534 | 6 | 0 | 0.0 | 0.0 | 0.00 | 0.00 | 0.00 | 82 | 1024.0 |
| 20260509053046 | 6 | 0 | 0.0 | 0.0 | 0.00 | 0.00 | 0.00 | 84 | 1024.0 |
| 20260509052534 | 6 | 0 | 0.0 | 0.0 | 0.00 | 0.00 | 0.00 | 83 | 1024.0 |
| 20260509052034 | 6 | 0 | 0.0 | 0.0 | 0.00 | 0.00 | 0.00 | 82 | 1023.9 |
| 20260509051544 | 6 | 0 | 0.0 | 0.0 | 0.00 | 0.00 | 0.00 | 82 | 1023.9 |
| 20260509051034 | 6 | 0 | 0.0 | 0.0 | 0.00 | 0.00 | 0.00 | 84 | 1023.9 |
| 20260509050534 | 5 | 0 | 0.0 | 0.0 | 0.00 | 0.00 | 0.00 | 85 | 1023.9 |
| 20260509050046 | 5 | 0 | 0.0 | 0.0 | 0.00 | 0.00 | 0.00 | 86 | 1023.9 |
| 20260509045534 | 5 | 0 | 0.0 | 0.0 | 0.00 | 0.00 | 0.00 | 88 | 1023.9 |
| 20260509045034 | 5 | 0 | 0.0 | 0.0 | 0.00 | 0.00 | 0.00 | 89 | 1024.0 |
| 20260509044542 | 4 | 0 | 0.0 | 0.0 | 0.00 | 0.00 | 0.00 | 89 | 1023.9 |
| 20260509044034 | 4 | 0 | 0.0 | 0.0 | 0.00 | 0.00 | 0.00 | 90 | 1024.0 |
| 20260509043534 | 4 | 0 | 0.0 | 0.0 | 0.00 | 0.00 | 0.00 | 90 | 1024.0 |
| 20260509043056 | 3 | 0 | 0.0 | 0.0 | 0.00 | 0.00 | 0.00 | 90 | 1024.0 |
| 20260509042534 | 3 | 0 | 0.0 | 0.0 | 0.00 | 0.00 | 0.00 | 90 | 1024.0 |
| 20260509042034 | 3 | 0 | 0.0 | 0.0 | 0.00 | 0.00 | 0.00 | 90 | 1024.0 |
| 20260509041546 | 3 | 0 | 0.0 | 0.0 | 0.00 | 0.00 | 0.00 | 90 | 1023.9 |
| 20260509041034 | 3 | 0 | 0.0 | 0.0 | 0.00 | 0.00 | 0.00 | 90 | 1024.0 |
| 20260509040535 | 3 | 0 | 0.0 | 0.0 | 0.00 | 0.00 | 0.00 | 90 | 1024.0 |
| 20260509040048 | 3 | 0 | 0.0 | 0.0 | 0.00 | 0.00 | 0.00 | 90 | 1024.0 |
| 20260509035536 | 3 | 0 | 0.0 | 0.0 | 0.00 | 0.00 | 0.00 | 90 | 1024.0 |
| 20260509035034 | 3 | 0 | 0.0 | 0.0 | 0.00 | 0.00 | 0.00 | 90 | 1024.1 |
| 20260509034551 | 3 | 0 | 0.0 | 0.0 | 0.00 | 0.00 | 0.00 | 90 | 1024.1 |
| 20260509034034 | 3 | 0 | 0.0 | 0.0 | 0.00 | 0.00 | 0.00 | 90 | 1024.1 |
| 20260509033534 | 3 | 0 | 0.0 | 0.0 | 0.00 | 0.00 | 0.00 | 90 | 1024.1 |
| 20260509033051 | 3 | 0 | 0.0 | 0.0 | 0.00 | 0.00 | 0.00 | 90 | 1024.1 |
| 20260509032534 | 3 | 0 | 0.0 | 0.0 | 0.00 | 0.00 | 0.00 | 90 | 1024.2 |
| 20260509032033 | 3 | 0 | 0.0 | 0.0 | 0.00 | 0.00 | 0.00 | 89 | 1024.2 |
| 20260509031542 | 3 | 0 | 0.0 | 0.0 | 0.00 | 0.00 | 0.00 | 89 | 1024.3 |
| 20260509031034 | 3 | 0 | 0.0 | 0.0 | 0.00 | 0.00 | 0.00 | 89 | 1024.2 |
| 20260509030534 | 3 | 0 | 0.0 | 0.0 | 0.00 | 0.00 | 0.00 | 89 | 1024.3 |
| 20260509030049 | 3 | 0 | 0.0 | 0.0 | 0.00 | 0.00 | 0.00 | 88 | 1024.1 |
| 20260509025533 | 3 | 0 | 0.0 | 0.0 | 0.00 | 0.00 | 0.00 | 88 | 1024.2 |
| 20260509025033 | 3 | 0 | 0.0 | 0.0 | 0.00 | 0.00 | 0.00 | 87 | 1024.2 |
| 20260509024545 | 3 | 0 | 0.0 | 0.0 | 0.00 | 0.00 | 0.00 | 87 | 1024.3 |
| 20260509024034 | 3 | 0 | 0.0 | 0.0 | 0.00 | 0.00 | 0.00 | 87 | 1024.3 |
| 20260509023534 | 3 | 0 | 0.0 | 0.0 | 0.00 | 0.00 | 0.00 | 86 | 1024.3 |
| 20260509023045 | 3 | 0 | 0.0 | 0.0 | 0.00 | 0.00 | 0.00 | 85 | 1024.4 |
| 20260509022533 | 4 | 0 | 0.0 | 0.0 | 0.00 | 0.00 | 0.00 | 84 | 1024.4 |
| 20260509022033 | 5 | 0 | 0.0 | 0.0 | 0.00 | 0.00 | 0.00 | 84 | 1024.5 |
| 20260509021545 | 5 | 0 | 0.0 | 0.0 | 0.00 | 0.00 | 0.00 | 84 | 1024.4 |
| 20260509021033 | 5 | 0 | 0.0 | 0.0 | 0.00 | 0.00 | 0.00 | 84 | 1024.5 |
| 20260509020534 | 5 | 0 | 0.0 | 0.0 | 0.00 | 0.00 | 0.00 | 84 | 1024.5 |
| 20260509020043 | 5 | 0 | 0.0 | 0.0 | 0.00 | 0.00 | 0.00 | 85 | 1024.5 |
| 20260509015535 | 4 | 0 | 0.0 | 0.0 | 0.00 | 0.00 | 0.00 | 87 | 1024.5 |
| 20260509015036 | 4 | 0 | 0.0 | 0.0 | 0.00 | 0.00 | 0.00 | 86 | 1024.5 |
| 20260509014540 | 3 | 0 | 0.0 | 0.0 | 0.00 | 0.00 | 0.00 | 86 | 1024.6 |
| 20260509014035 | 3 | 0 | 0.0 | 0.0 | 0.00 | 0.00 | 0.00 | 86 | 1024.7 |
| 20260509013534 | 3 | 0 | 0.0 | 0.0 | 0.00 | 0.00 | 0.00 | 85 | 1024.7 |
| 20260509013048 | 4 | 0 | 0.0 | 0.0 | 0.00 | 0.00 | 0.00 | 85 | 1024.6 |
| 20260509012535 | 4 | 0 | 0.0 | 0.0 | 0.00 | 0.00 | 0.00 | 85 | 1024.6 |
| 20260509012034 | 3 | 0 | 0.0 | 0.0 | 0.00 | 0.00 | 0.00 | 85 | 1024.6 |
| 20260509011546 | 3 | 0 | 0.0 | 0.0 | 0.00 | 0.00 | 0.00 | 84 | 1024.6 |
| 20260509011036 | 4 | 0 | 0.0 | 0.0 | 0.00 | 0.00 | 0.00 | 84 | 1024.6 |
| 20260509010533 | 4 | 0 | 0.0 | 0.0 | 0.00 | 0.00 | 0.00 | 82 | 1024.7 |
| 20260509010044 | 4 | 0 | 0.0 | 0.0 | 0.00 | 0.00 | 0.00 | 82 | 1024.6 |
| 20260509005536 | 5 | 0 | 0.0 | 0.0 | 0.00 | 0.00 | 0.00 | 81 | 1024.7 |
| 20260509005033 | 5 | 0 | 0.0 | 0.0 | 0.00 | 0.00 | 0.00 | 81 | 1024.6 |
| 20260509004556 | 5 | 0 | 0.0 | 0.0 | 0.00 | 0.00 | 0.00 | 81 | 1024.7 |
| 20260509004034 | 5 | 0 | 0.0 | 0.0 | 0.00 | 0.00 | 0.00 | 81 | 1024.6 |
| 20260509003534 | 5 | 0 | 0.0 | 0.0 | 0.00 | 0.00 | 0.00 | 80 | 1024.8 |
| 20260509003041 | 5 | 0 | 0.0 | 0.0 | 0.00 | 0.00 | 0.00 | 80 | 1024.7 |
| 20260509002536 | 5 | 0 | 0.0 | 0.0 | 0.00 | 0.00 | 0.00 | 80 | 1024.7 |
| 20260509002034 | 5 | 0 | 0.0 | 0.0 | 0.00 | 0.00 | 0.00 | 79 | 1024.7 |
| 20260509001551 | 5 | 0 | 0.0 | 0.0 | 0.00 | 0.00 | 0.00 | 79 | 1024.8 |
| 20260509001033 | 5 | 0 | 0.0 | 0.0 | 0.00 | 0.00 | 0.00 | 79 | 1024.7 |
| 20260509000535 | 5 | 0 | 0.0 | 0.0 | 0.00 | 0.00 | 0.00 | 79 | 1024.7 |
| 20260509000047 | 5 | 0 | 0.0 | 0.0 | 0.00 | 0.00 | 0.00 | 79 | 1024.7 |
| 20260508235534 | 5 | 0 | 0.0 | 0.0 | 0.00 | 0.00 | 0.00 | 79 | 1024.7 |
| 20260508235037 | 5 | 0 | 0.0 | 0.0 | 0.00 | 0.00 | 0.00 | 79 | 1024.7 |
| 20260508234544 | 5 | 0 | 0.0 | 0.0 | 0.00 | 0.00 | 0.00 | 79 | 1024.7 |
| 20260508234033 | 5 | 0 | 0.0 | 0.0 | 0.00 | 0.00 | 0.00 | 78 | 1024.7 |
| 20260508233533 | 5 | 0 | 0.0 | 0.0 | 0.00 | 0.00 | 0.00 | 79 | 1024.7 |
| 20260508233044 | 5 | 0 | 0.0 | 0.0 | 0.00 | 0.00 | 0.00 | 78 | 1024.7 |
| 20260508232534 | 5 | 0 | 0.0 | 1.6 | 0.00 | 0.00 | 0.00 | 79 | 1024.7 |
| 20260508232034 | 5 | 0 | 0.0 | 1.6 | 0.00 | 0.00 | 0.00 | 79 | 1024.8 |
| 20260508231545 | 4 | 0 | 0.0 | 0.0 | 0.00 | 0.00 | 0.00 | 79 | 1024.6 |
| 20260508231034 | 4 | 0 | 0.0 | 0.0 | 0.00 | 0.00 | 0.00 | 78 | 1024.7 |
| 20260508230533 | 5 | 0 | 0.0 | 0.0 | 0.00 | 0.00 | 0.00 | 77 | 1024.7 |
| 20260508230045 | 5 | 0 | 0.0 | 0.0 | 0.00 | 0.00 | 0.00 | 76 | 1024.6 |
| 20260508225534 | 5 | 0 | 0.0 | 0.0 | 0.00 | 0.00 | 0.00 | 76 | 1024.7 |
| 20260508225034 | 5 | 0 | 0.0 | 0.0 | 0.00 | 0.00 | 0.00 | 75 | 1024.7 |
| 20260508224550 | 5 | 0 | 0.0 | 0.0 | 0.00 | 0.00 | 0.00 | 76 | 1024.6 |
| 20260508224034 | 5 | 0 | 0.0 | 0.0 | 0.00 | 0.00 | 0.00 | 76 | 1024.6 |
| 20260508223534 | 5 | 0 | 0.0 | 0.0 | 0.00 | 0.00 | 0.00 | 76 | 1024.6 |
| 20260508223050 | 5 | 0 | 0.0 | 0.0 | 0.00 | 0.00 | 0.00 | 75 | 1024.6 |
| 20260508222534 | 5 | 0 | 0.0 | 0.0 | 0.00 | 0.00 | 0.00 | 75 | 1024.7 |
| 20260508222033 | 5 | 0 | 0.0 | 1.6 | 0.00 | 0.00 | 0.00 | 74 | 1024.5 |
| 20260508221544 | 5 | 0 | 0.0 | 3.2 | 0.00 | 0.00 | 0.00 | 75 | 1024.6 |
| 20260508221034 | 5 | 118 | 1.6 | 3.2 | 0.00 | 0.00 | 0.00 | 75 | 1024.6 |
| 20260508220534 | 5 | 101 | 1.6 | 3.2 | 0.00 | 0.00 | 0.00 | 75 | 1024.6 |
| 20260508220040 | 6 | 152 | 0.0 | 3.2 | 0.00 | 0.00 | 0.00 | 71 | 1024.6 |
| 20260508215534 | 7 | 106 | 0.0 | 1.6 | 0.00 | 0.00 | 0.00 | 66 | 1024.6 |
| 20260508215034 | 7 | 86 | 1.6 | 4.8 | 0.00 | 0.00 | 0.00 | 63 | 1024.6 |
| 20260508214555 | 7 | 0 | 0.0 | 4.8 | 0.00 | 0.00 | 0.00 | 63 | 1024.5 |
| 20260508214036 | 7 | 0 | 0.0 | 3.2 | 0.00 | 0.00 | 0.00 | 63 | 1024.5 |
| 20260508213533 | 7 | 0 | 0.0 | 3.2 | 0.00 | 0.00 | 0.00 | 62 | 1024.5 |
| 20260508213045 | 7 | 91 | 0.0 | 3.2 | 0.00 | 0.00 | 0.00 | 63 | 1024.5 |
| 20260508212534 | 7 | 89 | 0.0 | 1.6 | 0.00 | 0.00 | 0.00 | 62 | 1024.6 |
| 20260508212035 | 8 | 0 | 0.0 | 1.6 | 0.00 | 0.00 | 0.00 | 61 | 1024.5 |
| 20260508211541 | 8 | 322 | 0.0 | 1.6 | 0.00 | 0.00 | 0.00 | 62 | 1024.4 |
| 20260508211034 | 8 | 0 | 0.0 | 0.0 | 0.00 | 0.00 | 0.00 | 61 | 1024.5 |
| 20260508210534 | 8 | 0 | 0.0 | 3.2 | 0.00 | 0.00 | 0.00 | 61 | 1024.6 |
| 20260508210054 | 8 | 0 | 0.0 | 3.2 | 0.00 | 0.00 | 0.00 | 60 | 1024.5 |
| 20260508205533 | 8 | 0 | 0.0 | 1.6 | 0.00 | 0.00 | 0.00 | 60 | 1024.5 |
| 20260508205034 | 8 | 122 | 0.0 | 1.6 | 0.00 | 0.00 | 0.00 | 61 | 1024.4 |
| 20260508204544 | 8 | 0 | 0.0 | 1.6 | 0.00 | 0.00 | 0.00 | 61 | 1024.5 |
| 20260508204033 | 8 | 0 | 0.0 | 0.0 | 0.00 | 0.00 | 0.00 | 60 | 1024.5 |